Location: Long Island Community Building
(39.9491°N, 99.5338°W)
Time: 23:49:59
(UTC+00:00)

SL-4 R/B - Pass Details

Date: 06 December 2019
Orbit: 428 x 667 km, 51.6° (Epoch: 24 January)

Event Time Altitude Azimuth Distance (km) Brightness Sun altitude
Rises 23:50:03 0° 246° (WSW) 2,467 8.1 -7.2°
Reaches altitude 10° 23:52:10 10° 252° (WSW) 1,626 6.2 -7.6°
Maximum altitude 23:55:44 49° 329° (NNW) 646 2.4 -8.2°
Drops below altitude 10° 23:59:36 10° 45° (NE) 1,762 4.0 -8.9°
Enters shadow 23:59:38 10° 45° (NE) 1,779 4.0 -8.9°
